Погода в Масаловке

Россия / Ростовская область     48°24′43″N   40°16′07″E
темп.,
°C
ветер,
м/с
пор.,
м/с
влажн.,
%
обл.,
%
осадки,
мм/ч
давл.,
гПа
погр.,
м
14 апреля, ср
ср1400:00+11с239076 0.0 102138
03:00+11с3490100 0.3 101984
06:00+10ссв1289100 0.0 101819
09:00+15вюв4744100 0.0 1017466
12:00+17в583889 0.0 1016980
15:00+19юв7940100 0.0 10151903
18:00+16ю4652100 0.0 1015296
21:00+12ююв366591 0.0 1016111
15 апреля, чт
чт1500:00+11зюз3775100 0.0 1016242
03:00+10зюз378254 0.0 1016211
06:00+8зюз23855 0.0 101765
09:00+13зюз33575 0.0 1017541
12:00+16юз34484 0.0 10161405
15:00+18ююз344275 0.0 10152084
18:00+16юз365850 0.0 1015243
21:00+12юз486777 0.0 1016193
16 апреля, пт
пт1600:00+11юз367495 0.0 1016135
03:00+9зюз22875 0.0 101612
06:00+8ю2295100 0.6 101757
09:00+13ю347342 0.6 1018766
12:00+17ююз57425 0.0 10171775
15:00+18юз5741100 0.0 10172139
18:00+14юз7759100 0.0 1017592
21:00+10зюз2484100 2.3 1019227
17 апреля, сб
сб1700:00+10ююз2383100 0.8 1019382
03:00+9зюз4680100 1.4 1019370
06:00+8зюз368482 0.0 1019236
09:00+11зюз45613 0.0 1020969
12:00+14юз4643100 0.0 10202336
15:00+13юз455385 0.3 10201350
18:00+11юз566129 0.3 1021786
21:00+8ююз357356 0.3 1021124
18 апреля, вс
вс1800:00+9зюз367498 0.0 1021248
03:00+8зсз2574100 0.0 1021223
06:00+8з247661 0.0 1021156
09:00+11з325914 0.0 1021680
12:00+14зюз224560 0.0 10201740
15:00+15зюз224088 0.0 10192009
18:00+15ююз114234 0.0 10191244
21:00+12юз3558100 0.0 1020192